Flag for Netherlands Weather past 2 weeks in Tilburg, Netherlands

Now
37 °F

More clouds than sun.


Feels Like: 32 °F
Forecast: 33 / 42 °F
Wind: 7 mph from West

Location: Gilze-Rijen

Current Time: Feb 1, 2015 at 8:57:34 AM

Latest Report: Feb 1, 2015 at 8:25 AM


Visibility: N/A

Pressure: 29.15 "Hg

Humidity: 93%

Dew point: 36 °F

Location of TilburgLocation

Historic Weather in Tilburg — Graph

°F

Tilburg temperature yesterday

Maximum temperature yesterday: 41 °F (at 12:55 PM)
Minimum temperature yesterday: 32 °F (at 5:55 AM)
Average temperature yesterday: 35 °F

Past Weeks' High & Low Weather Summary

 TemperatureHumidityPressure
High48 °F (Jan 26, 1:55 PM)100% (Jan 17, 8:00 AM)30.42 "Hg (Jan 17, 8:00 AM)
Low23 °F (Jan 23, 4:25 AM)61% (Jan 17, 3:25 PM)28.71 "Hg (Jan 29, 9:59 PM)
Average35 °F92%29.79 "Hg
* Reported Jan 17 7:02 AM — Feb 1 7:55 AM, Tilburg, Weather by CustomWeather, © 2014

Note: Actual official high and low records may vary slightly from our data, if they occured in-between our weather recording intervals... More about our weather records

Advertising

Tilburg weather history for previous 24 hours

 ConditionsComfort  
Time TempWeatherWind HumidityBarometerVisibility
7:55 AM
Feb 1
37 °FPartly cloudy.8 mph93%29.15 "HgN/A
7:25 AM37 °FDrizzle. Mostly cloudy.8 mph93%29.15 "HgN/A
6:55 AM36 °FMostly cloudy.6 mph100%29.15 "HgN/A
6:25 AM36 °FLight rain. Passing clouds.6 mph100%29.15 "Hg3 mi
5:55 AM36 °FLight rain. Partly cloudy.7 mph100%29.12 "Hg4 mi
5:25 AM36 °FLight rain. Partly cloudy.6 mph100%29.12 "Hg3 mi
4:55 AM34 °FPartly cloudy.7 mph100%29.12 "Hg2 mi
4:25 AM34 °FFog.7 mph100%29.12 "Hg2 mi
4:00 AM34 °FFog.7 mph100%29.12 "Hg2 mi
3:55 AM34 °FFog.7 mph100%29.12 "Hg2 mi
3:25 AM34 °FFog.6 mph100%29.12 "Hg3 mi
2:59 AM34 °FFog.7 mph100%29.12 "Hg3 mi
2:55 AM34 °FFog.7 mph100%29.12 "Hg3 mi
2:25 AM32 °FIce fog.6 mph100%29.12 "Hg2 mi
1:55 AM32 °FIce fog.5 mph100%29.12 "Hg2 mi
1:25 AM32 °FIce fog.5 mph100%29.12 "Hg2 mi
12:55 AM32 °FIce fog.6 mph100%29.12 "Hg2 mi
12:25 AM32 °FIce fog.6 mph100%29.12 "Hg2 mi
11:59 PM
Jan 31
34 °FFog.5 mph100%29.12 "Hg2 mi
11:25 PM32 °FIce fog.6 mph100%29.09 "Hg1 mi
11:02 PM32 °FIce fog.6 mph100%29.09 "Hg1 mi
10:55 PM32 °FIce fog.5 mph100%29.09 "Hg1 mi
10:25 PM32 °FIce fog.5 mph100%29.09 "Hg2 mi
9:55 PM32 °FIce fog.5 mph100%29.09 "Hg2 mi
9:25 PM32 °FIce fog.5 mph100%29.09 "Hg2 mi
8:55 PM32 °FIce fog.6 mph100%29.09 "Hg3 mi
8:25 PM34 °FFog.5 mph100%29.09 "Hg4 mi
8:04 PM32 °FIce fog.6 mph100%29.09 "Hg4 mi
7:25 PM32 °FIce fog.5 mph93%29.06 "Hg2 mi
7:03 PM34 °FFog.5 mph100%29.06 "Hg1 mi
7:02 PM34 °FFog.5 mph100%29.06 "Hg1 mi
6:55 PM34 °FFog.3 mph100%29.06 "Hg2 mi
6:25 PM34 °FFog.No wind100%29.06 "Hg3 mi
6:02 PM34 °FFog.3 mph100%29.06 "Hg4 mi
5:55 PM34 °FPartly cloudy.2 mph100%29.03 "HgN/A
5:25 PM34 °FBroken clouds.2 mph100%29.03 "HgN/A
4:55 PM36 °FLight rain. Mostly cloudy.3 mph93%29.03 "HgN/A
4:25 PM34 °FLight rain. Broken clouds.10 mph100%29.03 "Hg4 mi
4:04 PM36 °FRain showers. Broken clouds.14 mph93%29.00 "Hg1 mi
3:59 PM37 °FDrizzle. Broken clouds.5 mph87%29.00 "HgN/A
3:25 PM39 °FPartly sunny.2 mph87%29.00 "HgN/A
2:56 PM39 °FScattered clouds.5 mph87%29.00 "HgN/A
2:55 PM39 °FScattered clouds.3 mph87%29.00 "HgN/A
2:25 PM37 °FBroken clouds.5 mph87%28.97 "HgN/A
2:02 PM41 °FDrizzle. Broken clouds.8 mph76%28.97 "Hg4 mi
2:00 PM41 °FDrizzle. Broken clouds.9 mph76%28.97 "HgN/A
1:25 PM41 °FBroken clouds.8 mph81%28.97 "HgN/A
12:55 PM41 °FBroken clouds.7 mph81%28.97 "HgN/A
12:25 PM39 °FBroken clouds.8 mph81%28.97 "HgN/A
12:03 PM37 °FPartly sunny.6 mph87%28.97 "HgN/A
11:55 AM37 °FBroken clouds.7 mph87%28.97 "HgN/A
11:25 AM37 °FFog.7 mph87%28.97 "Hg6 mi
10:55 AM36 °FBroken clouds.9 mph93%28.97 "HgN/A
10:25 AM36 °FBroken clouds.7 mph93%28.94 "HgN/A
9:55 AM34 °FPassing clouds.6 mph93%28.94 "HgN/A
9:25 AM34 °FFog.5 mph93%28.94 "Hg6 mi
8:55 AM34 °FFog.6 mph93%28.94 "Hg6 mi
8:25 AM32 °FIce fog.7 mph100%28.94 "Hg6 mi
Weather by CustomWeather, © 2014

See weather overviewHow to use our weather pages